When you browse on this site, cookies collect data to enhance your experience and personalize the content and advertising you see.
Visit our Privacy Policy to learn more. By continuing to use the site, you agree to this use of cookies and data.
EN

Hourly Weather Mutare

Today, 6 July, Monday

Time Temperature Precipitation Wind Pressure Humidity
00:00 +8°C° 0 mm 0 mps 654 mmHg 71%
01:00 +7°C° 0 mm 0 mps 654 mmHg 73%
02:00 +8°C° 0 mm 1 mps 654 mmHg 77%
03:00 +7°C° 0 mm 1 mps 654 mmHg 80%
04:00 +7°C° 0 mm 1 mps 654 mmHg 82%
05:00 +7°C° 0 mm 1 mps 654 mmHg 85%
06:00 +8°C° 0 mm 1 mps 655 mmHg 79%
07:00 +10°C° 0 mm 1 mps 656 mmHg 73%
08:00 +12°C° 0 mm 1 mps 657 mmHg 64%
09:00 +15°C° 0 mm 1 mps 657 mmHg 52%
10:00 +18°C° 0 mm 2 mps 658 mmHg 39%
11:00 +20°C° 0 mm 2 mps 658 mmHg 27%
12:00 +21°C° 0 mm 3 mps 658 mmHg 26%
13:00 +21°C° 0 mm 3 mps 657 mmHg 25%
14:00 +21°C° 0 mm 3 mps 656 mmHg 24%
15:00 +20°C° 0 mm 3 mps 656 mmHg 27%
16:00 +19°C° 0 mm 2 mps 655 mmHg 31%
17:00 +17°C° 0 mm 2 mps 655 mmHg 34%
18:00 +15°C° 0 mm 2 mps 655 mmHg 41%
19:00 +13°C° 0 mm 1 mps 655 mmHg 48%
20:00 +11°C° 0 mm 1 mps 654 mmHg 55%
21:00 +10°C° 0 mm 1 mps 654 mmHg 60%
22:00 +10°C° 0 mm 1 mps 654 mmHg 65%
23:00 +9°C° 0 mm 1 mps 654 mmHg 69%

Tomorrow, 7 July, Tuesday

Time Temperature Precipitation Wind Pressure Humidity
00:00 +9°C° 0 mm 1 mps 654 mmHg 72%
01:00 +9°C° 0 mm 1 mps 654 mmHg 75%
02:00 +8°C° 0 mm 1 mps 654 mmHg 78%
03:00 +8°C° 0 mm 1 mps 654 mmHg 80%
04:00 +8°C° 0 mm 1 mps 653 mmHg 81%
05:00 +6°C° 0 mm 0 mps 653 mmHg 82%
06:00 +8°C° 0 mm 0 mps 654 mmHg 73%
07:00 +11°C° 0 mm 0 mps 655 mmHg 64%
08:00 +13°C° 0 mm 0 mps 656 mmHg 54%
09:00 +18°C° 0 mm 1 mps 657 mmHg 45%
10:00 +21°C° 0 mm 1 mps 657 mmHg 37%
11:00 +23°C° 0 mm 1 mps 658 mmHg 28%
12:00 +24°C° 0 mm 2 mps 657 mmHg 27%
13:00 +24°C° 0 mm 2 mps 657 mmHg 26%
14:00 +25°C° 0 mm 3 mps 656 mmHg 25%
15:00 +23°C° 0 mm 2 mps 656 mmHg 30%
16:00 +20°C° 0 mm 2 mps 655 mmHg 35%
17:00 +19°C° 0 mm 2 mps 655 mmHg 40%
18:00 +17°C° 0 mm 2 mps 655 mmHg 46%
19:00 +15°C° 0 mm 1 mps 655 mmHg 52%
20:00 +13°C° 0 mm 1 mps 655 mmHg 58%
21:00 +13°C° 0 mm 1 mps 655 mmHg 64%
22:00 +12°C° 0 mm 1 mps 655 mmHg 70%
23:00 +11°C° 0 mm 1 mps 655 mmHg 76%

Day after tomorrow, 8 July, Wednesday

Time Temperature Precipitation Wind Pressure Humidity
00:00 +11°C° 0 mm 1 mps 655 mmHg 81%
01:00 +11°C° 0 mm 1 mps 655 mmHg 85%
02:00 +10°C° 0 mm 1 mps 654 mmHg 90%
03:00 +10°C° 0 mm 1 mps 655 mmHg 91%
04:00 +10°C° 0 mm 1 mps 655 mmHg 93%
05:00 +10°C° 0 mm 1 mps 655 mmHg 94%
06:00 +11°C° 0 mm 1 mps 656 mmHg 87%
07:00 +13°C° 0 mm 1 mps 657 mmHg 79%
08:00 +14°C° 0 mm 1 mps 658 mmHg 72%
09:00 +16°C° 0 mm 2 mps 659 mmHg 60%
10:00 +18°C° 0 mm 3 mps 659 mmHg 49%
11:00 +19°C° 0 mm 4 mps 659 mmHg 37%
12:00 +20°C° 0 mm 4 mps 659 mmHg 36%
13:00 +20°C° 0 mm 4 mps 659 mmHg 36%
14:00 +21°C° 0 mm 4 mps 658 mmHg 35%
15:00 +19°C° 0 mm 4 mps 658 mmHg 43%
16:00 +18°C° 0 mm 3 mps 657 mmHg 51%
17:00 +16°C° 0 mm 3 mps 657 mmHg 58%
18:00 +14°C° 0 mm 3 mps 657 mmHg 68%
19:00 +13°C° 0 mm 2 mps 657 mmHg 78%
20:00 +10°C° 0 mm 2 mps 656 mmHg 89%
21:00 +10°C° 0 mm 2 mps 657 mmHg 89%
22:00 +10°C° 0 mm 2 mps 657 mmHg 90%
23:00 +10°C° 0 mm 2 mps 657 mmHg 91%

9 July, Thursday

Time Temperature Precipitation Wind Pressure Humidity
00:00 +10°C° 0 mm 2 mps 656 mmHg 90%
01:00 +11°C° 0 mm 1 mps 656 mmHg 90%
02:00 +11°C° 0 mm 1 mps 656 mmHg 89%
03:00 +10°C° 0 mm 1 mps 656 mmHg 91%
04:00 +10°C° 0 mm 1 mps 655 mmHg 93%
05:00 +9°C° 0 mm 1 mps 655 mmHg 95%
06:00 +10°C° 0 mm 1 mps 655 mmHg 90%
07:00 +12°C° 0 mm 1 mps 656 mmHg 85%
08:00 +13°C° 0 mm 1 mps 656 mmHg 80%
09:00 +15°C° 0 mm 1 mps 657 mmHg 69%
10:00 +18°C° 0 mm 2 mps 657 mmHg 58%
11:00 +21°C° 0 mm 2 mps 658 mmHg 47%
12:00 +21°C° 0 mm 2 mps 657 mmHg 46%
13:00 +23°C° 0 mm 2 mps 656 mmHg 45%
14:00 +23°C° 0 mm 2 mps 656 mmHg 44%
15:00 +21°C° 0 mm 2 mps 655 mmHg 48%
16:00 +19°C° 0 mm 2 mps 655 mmHg 53%
17:00 +18°C° 0 mm 2 mps 655 mmHg 57%
18:00 +17°C° 0 mm 2 mps 654 mmHg 64%
19:00 +15°C° 0 mm 2 mps 654 mmHg 71%
20:00 +13°C° 0 mm 2 mps 654 mmHg 77%
21:00 +13°C° 0 mm 2 mps 654 mmHg 81%
22:00 +12°C° 0 mm 1 mps 654 mmHg 85%
23:00 +12°C° 0 mm 1 mps 654 mmHg 89%

10 July, Friday

Time Temperature Precipitation Wind Pressure Humidity
00:00 +12°C° 0 mm 1 mps 653 mmHg 90%
01:00 +11°C° 0 mm 1 mps 653 mmHg 91%
02:00 +11°C° 0 mm 1 mps 653 mmHg 92%
03:00 +11°C° 0 mm 1 mps 653 mmHg 91%
04:00 +12°C° 0 mm 1 mps 653 mmHg 90%
05:00 +12°C° 0 mm 1 mps 653 mmHg 88%
06:00 +13°C° 0 mm 0 mps 653 mmHg 80%
07:00 +15°C° 0 mm 0 mps 654 mmHg 73%
08:00 +16°C° 0 mm 0 mps 655 mmHg 65%
09:00 +21°C° 0 mm 1 mps 655 mmHg 55%
10:00 +24°C° 0 mm 1 mps 656 mmHg 46%
11:00 +27°C° 0 mm 2 mps 656 mmHg 36%
12:00 +27°C° 0 mm 2 mps 655 mmHg 36%
13:00 +27°C° 0 mm 2 mps 655 mmHg 35%
14:00 +27°C° 0 mm 2 mps 654 mmHg 35%
15:00 +25°C° 0 mm 2 mps 653 mmHg 39%
16:00 +24°C° 0 mm 1 mps 653 mmHg 43%
17:00 +23°C° 0 mm 1 mps 652 mmHg 48%
18:00 +22°C° 0 mm 1 mps 652 mmHg 52%
19:00 +20°C° 0 mm 1 mps 652 mmHg 56%
20:00 +19°C° 0 mm 1 mps 652 mmHg 60%
21:00 +18°C° 0 mm 1 mps 652 mmHg 64%
22:00 +16°C° 0 mm 1 mps 652 mmHg 68%
23:00 +16°C° 0 mm 1 mps 652 mmHg 72%

11 July, Saturday

Time Temperature Precipitation Wind Pressure Humidity
00:00 +16°C° 0 mm 1 mps 652 mmHg 73%
01:00 +16°C° 0 mm 1 mps 652 mmHg 74%
02:00 +15°C° 0 mm 1 mps 652 mmHg 74%
03:00 +15°C° 0 mm 1 mps 652 mmHg 76%
04:00 +15°C° 0 mm 1 mps 652 mmHg 78%
05:00 +14°C° 0 mm 1 mps 652 mmHg 79%
06:00 +16°C° 0 mm 1 mps 653 mmHg 71%
07:00 +17°C° 0 mm 0 mps 654 mmHg 63%
08:00 +19°C° 0 mm 0 mps 655 mmHg 56%
09:00 +23°C° 0 mm 1 mps 655 mmHg 46%
10:00 +26°C° 0 mm 2 mps 655 mmHg 36%
11:00 +28°C° 0 mm 3 mps 656 mmHg 26%
12:00 +28°C° 0 mm 3 mps 655 mmHg 25%
13:00 +29°C° 0 mm 3 mps 655 mmHg 23%
14:00 +29°C° 0 mm 3 mps 655 mmHg 22%
15:00 +28°C° 0 mm 3 mps 655 mmHg 25%
16:00 +26°C° 0 mm 3 mps 654 mmHg 28%
17:00 +25°C° 0 mm 3 mps 654 mmHg 31%
18:00 +22°C° 0 mm 3 mps 654 mmHg 34%
19:00 +20°C° 0 mm 2 mps 654 mmHg 38%
20:00 +18°C° 0 mm 2 mps 654 mmHg 41%
21:00 +17°C° 0 mm 2 mps 655 mmHg 42%
22:00 +15°C° 0 mm 1 mps 655 mmHg 43%
23:00 +14°C° 0 mm 1 mps 655 mmHg 44%
Show more